Tracking 29967 objects as of 5-Dec-2024
HD Live streaming from Space Station
objects crossing your sky now

COSMOS 1823

Track COSMOS 1823 now!
10-day predictions
COSMOS 1823 is classified as:


NORAD ID: 17535
Int'l Code: 1987-020A
Perigee: 1,485.1 km
Apogee: 1,530.9 km
Inclination: 73.6 °
Period: 116.0 minutes
Semi major axis: 7878 km
RCS: 13.63 m2 (large)
Launch date: February 20, 1987
Source: Commonwealth of Independent States (former USSR) (CIS)
Launch site: PLESETSK MISSILE AND SPACE COMPLEX (PKMTR)
Your satellite tracking list
Your tracking list is empty




NASA's NSSDC Master Catalog

Two Line Element Set (TLE):
1 17535U 87020A   24339.79992795  .00000020  00000-0  27704-3 0  9991
2 17535  73.6030  73.4590 0029073 326.1281 180.4877 12.41363350712445
Source of the keplerian elements: AFSPC